[[{"header":{"parameterUnit":"m.s-1","parameterCategory":1,"la1":30.2991,"la2":30.254,"lo1":-89.0895,"lo2":-89.0444,"dy":0.0017,"dx":0.0017,"nx":28,"ny":28,"refTime":"2024-10-04T21:00:00:Z","depth":0,"parameterNumber":2,"parameterNumberName":"U-component_of_WINDS"},"data":[0,0,0,0,0,0,0,0,0,0,0,0,0,0,0,0,0,0,0,0,0,0,0,0,0,0,0,0,0,0,0,0,0,0,0,0,0,0,0,0,0,0,0,0,0,0,0,0,0,0,0,0,0,0,0,0,0,0,-4.3245,-4.3246,0,-4.3266,-4.3266,-4.3267,-4.3177,-4.3174,-4.3172,-4.3169,-4.3189,-4.3192,-4.3195,0,0,0,0,0,0,0,0,0,0,0,0,0,-4.3127,-4.313,-4.3245,-4.3246,-4.3246,-4.3266,-4.3266,-4.3267,-4.3177,-4.3174,-4.3171,-4.3168,-4.3188,-4.3191,-4.3195,0,0,0,0,0,0,0,0,0,0,0,0,0,-4.3166,-4.3131,-4.3245,-4.3204,-4.32,-4.3266,-4.3266,-4.3267,-4.3178,-4.3174,-4.317,-4.3167,-4.3187,-4.3191,-4.3195,-4.3302,0,0,-4.3209,-4.3211,0,0,0,0,0,0,0,0,-4.3164,-4.3171,-4.321,-4.3207,-4.3203,-4.3215,-4.3232,-4.3278,-4.3179,-4.3187,-4.3169,-4.3165,-4.3201,-4.3204,-4.3216,-4.3302,-4.3303,-4.3209,-4.3212,-4.3214,-4.3215,0,0,0,0,0,0,0,-4.3162,-4.3169,-4.3253,-4.321,-4.3206,-4.3184,-4.3185,-4.324,-4.3215,-4.3186,-4.3179,-4.3183,-4.3198,-4.3212,-4.3216,-4.3304,-4.3209,-4.3213,-4.3216,-4.3218,-4.348,-4.3484,0,0,0,0,0,0,-4.3165,-4.3168,-4.3253,-4.3254,-4.3174,-4.3189,-4.3191,-4.3215,-4.3214,-4.3211,-4.3186,-4.3179,-4.3206,-4.3211,-4.3216,-4.3342,-4.3214,-4.3218,-4.3221,-4.3476,-4.3481,-4.3486,0,0,0,0,0,0,-4.3163,-4.3173,-4.3252,-4.3209,-4.3218,-4.3195,-4.3224,-4.3218,-4.3232,-4.3215,-4.321,-4.3205,-4.3204,-4.321,-4.3282,-4.3342,-4.322,-4.3224,-4.3471,-4.3478,-4.3484,-4.3595,0,0,0,0,0,0,-4.316,-4.3173,-4.3213,-4.3211,-4.322,-4.3318,-4.3227,-4.3221,-4.324,-4.323,-4.3232,-4.3228,-4.3201,-4.3276,-4.3286,-4.3346,-4.3228,-4.3465,-4.3474,-4.3482,-4.3586,-4.3604,-4.362,0,0,0,0,0,-4.3156,-4.3243,-4.3216,-4.3226,-4.327,-4.3321,-4.3326,-4.3294,-4.3245,-4.3285,-4.3275,-4.3228,-4.3333,-4.3284,-4.3295,-4.3357,-4.3462,-4.3472,-4.3481,-4.3578,-4.3601,-4.362,0,0,0,0,0,0,-4.3251,-4.3242,-4.3211,-4.33,-4.3313,-4.3306,-4.3356,-4.3319,-4.3344,-4.3334,-4.3292,-4.3293,-4.3373,-4.3371,-4.3316,-4.346,-4.3389,-4.3401,-4.3459,-4.348,-4.3497,-4.3497,-4.3231,0,0,0,0,0,-4.3283,-4.3326,-4.3315,-4.3394,-4.3402,-4.3378,-4.3399,-4.3373,-4.3384,-4.3388,-4.3383,-4.3395,-4.343,-4.3455,-4.3486,-4.3584,-4.3585,-4.3633,-4.365,-4.3664,-4.3676,-4.373,-4.3752,-4.3518,-4.3518,-4.3517,0,0,-4.3349,-4.3349,-4.3378,-4.3414,-4.342,-4.3465,-4.3383,-4.3434,-4.3467,-4.3395,-4.3464,-4.3461,-4.3471,-4.3557,-4.3594,-4.3558,-4.374,-4.3676,-4.3688,-4.3692,-4.3742,-4.3764,-4.3784,-4.3524,-4.3523,-4.3522,0,0,-4.3492,-4.3496,-4.3564,-4.3572,-4.3583,-4.3567,-4.3583,-4.3583,-4.3578,-4.3646,-4.3594,-4.3633,-4.3695,-4.3705,-4.3718,-4.3867,-4.3826,-4.3879,-4.3969,-4.4023,-4.4041,-4.4057,-4.4113,-4.4133,-4.389,-4.389,-4.389,0,-4.3572,-4.3639,-4.3603,-4.3659,-4.3676,-4.3614,-4.3683,-4.3693,-4.3713,-4.3727,-4.3686,-4.3765,-4.3767,-4.3855,-4.3892,-4.3904,-4.3923,-4.3879,-4.4041,-4.4057,-4.4072,-4.4124,-4.4145,-4.3897,-4.3896,-4.3895,-4.3895,0,-4.3738,-4.3785,-4.3839,-4.3862,-4.3886,-4.3947,-4.3921,-4.3949,-4.3921,-4.391,-4.398,-4.3981,-4.4013,-4.4032,-4.4004,-4.4117,-4.4095,-4.4048,-4.3976,-4.4101,-4.415,-4.4169,-4.3906,-4.3904,-4.3902,-4.39,0,0,-4.3943,-4.3946,-4.3967,-4.3978,-4.3986,-4.4022,-4.4081,-4.4113,-4.4139,-4.4155,-4.4205,-4.426,-4.4217,-4.4233,-4.4206,-4.4252,-4.4373,-4.42,-4.42,-4.4234,-4.45,-4.4537,-4.4561,-4.4345,-4.4349,-4.4352,-4.45,0,-4.4085,-4.4188,-4.4158,-4.4261,-4.4305,-4.4247,-4.4299,-4.431,-4.4301,-4.4337,-4.4326,-4.4367,-4.4306,-4.4315,-4.4359,-4.435,-4.4426,-4.4338,-4.4392,-4.4395,-4.4394,-4.4586,-4.4624,-4.4764,-4.4519,-4.4522,-4.4524,0,-4.4265,-4.4291,-4.4399,-4.4402,-4.4419,-4.4466,-4.4495,-4.4529,-4.4541,-4.4531,-4.4549,-4.4513,-4.4572,-4.4499,-4.458,-4.4521,-4.4541,-4.454,-4.4544,-4.455,-4.4469,-4.4598,-4.4808,-4.483,-4.4553,-4.4551,-4.4549,0,-4.4407,-4.4467,-4.4541,-4.4551,-4.4556,-4.4591,-4.4594,-4.4602,-4.4624,-4.4648,-4.4662,-4.4692,-4.471,-4.4734,-4.4708,-4.4657,-4.4795,-4.4718,-4.4789,-4.479,-4.4822,-4.4821,-4.504,-4.4832,-4.4832,-4.4831,-4.4831,0,-4.457,-4.4639,-4.4605,-4.465,-4.4726,-4.469,-4.4767,-4.4763,-4.4771,-4.4815,-4.4765,-4.4807,-4.4769,-4.4808,-4.4787,-4.4859,-4.4867,-4.4861,-4.4856,-4.4867,-4.4868,-4.4881,-4.4872,-4.4837,-4.4835,-4.4834,-4.4833,0,-4.4742,-4.4721,-4.4798,-4.4796,-4.4798,-4.4854,-4.4852,-4.4894,-4.4882,-4.4938,-4.4949,-4.493,-4.4973,-4.4949,-4.4993,-4.4979,-4.5074,-4.5053,-4.5071,-4.5066,-4.5139,-4.5134,-4.5376,-4.5407,-4.5177,-4.5179,-4.5181,0,-4.4849,-4.4901,-4.4906,-4.4932,-4.4939,-4.4982,-4.5005,-4.4971,-4.4997,-4.5015,-4.5055,-4.5095,-4.5125,-4.5197,-4.5187,-4.5221,-4.5202,-4.5285,-4.5207,-4.5218,-4.5206,-4.5204,-4.521,-4.5301,-4.5304,-4.5306,-4.5308,0,-4.5041,-4.5029,-4.5064,-4.5097,-4.5126,-4.5149,-4.5168,-4.5193,-4.516,-4.5191,-4.5236,-4.5259,-4.5305,-4.5345,-4.5375,-4.5378,-4.5339,-4.5332,-4.5351,-4.5364,-4.5373,-4.5372,-4.5116,-4.5327,-4.5325,-4.5324,-4.5323,-4.5322,-4.5185,-4.523,-4.5241,-4.5282,-4.5294,-4.5313,-4.5353,-4.5347,-4.5383,-4.5419,-4.5396,-4.545,-4.5461,-4.5496,-4.5505,-4.5546,-4.5513,-4.5539,-4.5546,-4.5554,-4.5565,-4.5365,-4.5551,-4.555,-4.555,-4.5549,-4.5549,0,-4.5378,-4.5382,-4.542,-4.545,-4.5483,-4.5443,-4.5462,-4.5493,-4.554,-4.5554,-4.5585,-4.5637,-4.5676,-4.567,-4.5705,-4.574,-4.5723,-4.575,-4.5749,-4.5751,-4.5592,-4.5573,-4.5764,-4.5764,-4.5764,-4.5764,-4.5764,-4.5764,-4.5482,-4.5556,-4.5545,-4.5625,-4.5628,-4.5681,-4.5696,-4.5714,-4.5725,-4.5786,-4.5819,-4.5814,-4.582,-4.5856,-4.5891,-4.5888,-4.5904,-4.594,-4.593,-4.5783,-4.5761,-4.5741,-4.5724,-4.5943,-4.5943,-4.6086,-4.6087,-4.6088]},{"header":{"parameterUnit":"m.s-1","parameterCategory":1,"la1":30.2991,"la2":30.254,"lo1":-89.0895,"lo2":-89.0444,"dy":0.0017,"dx":0.0017,"nx":28,"ny":28,"refTime":"2024-10-04T21:00:00:Z","depth":0,"parameterNumber":3,"parameterNumberName":"V-component_of_WINDS"},"data":[0,0,0,0,0,0,0,0,0,0,0,0,0,0,0,0,0,0,0,0,0,0,0,0,0,0,0,0,0,0,0,0,0,0,0,0,0,0,0,0,0,0,0,0,0,0,0,0,0,0,0,0,0,0,0,0,0,0,-2.1947,-2.1947,0,-2.1932,-2.1932,-2.1932,-2.1898,-2.1897,-2.1896,-2.1896,-2.1881,-2.1881,-2.1881,0,0,0,0,0,0,0,0,0,0,0,0,0,-2.1946,-2.1947,-2.1947,-2.1947,-2.1947,-2.1932,-2.1932,-2.1931,-2.1898,-2.1897,-2.1896,-2.1895,-2.1881,-2.1881,-2.1881,0,0,0,0,0,0,0,0,0,0,0,0,0,-2.1941,-2.1947,-2.1947,-2.1928,-2.1926,-2.1932,-2.1932,-2.1931,-2.1898,-2.1897,-2.1896,-2.1895,-2.1881,-2.1881,-2.1881,-2.1905,0,0,-2.1882,-2.1883,0,0,0,0,0,0,0,0,-2.1941,-2.1941,-2.1931,-2.1929,-2.1927,-2.1916,-2.1926,-2.1922,-2.1898,-2.1909,-2.1896,-2.1894,-2.1893,-2.1892,-2.1892,-2.1904,-2.1903,-2.1882,-2.1883,-2.1883,-2.1883,0,0,0,0,0,0,0,-2.1941,-2.1941,-2.1941,-2.1931,-2.1929,-2.192,-2.1918,-2.1925,-2.1907,-2.1908,-2.1905,-2.1904,-2.1892,-2.1892,-2.1891,-2.1903,-2.1882,-2.1883,-2.1883,-2.1883,-2.1933,-2.1934,0,0,0,0,0,0,-2.1945,-2.1942,-2.1941,-2.1941,-2.1932,-2.1921,-2.1919,-2.192,-2.1907,-2.1904,-2.1905,-2.1902,-2.1891,-2.1891,-2.1891,-2.1917,-2.1883,-2.1883,-2.1883,-2.1932,-2.1933,-2.1934,0,0,0,0,0,0,-2.1945,-2.1945,-2.1942,-2.194,-2.1939,-2.1922,-2.1924,-2.1921,-2.192,-2.1905,-2.1901,-2.1908,-2.1891,-2.189,-2.1901,-2.1916,-2.1883,-2.1884,-2.193,-2.1932,-2.1933,-2.197,0,0,0,0,0,0,-2.1945,-2.1945,-2.1954,-2.1941,-2.194,-2.1953,-2.1925,-2.1921,-2.1921,-2.1918,-2.1907,-2.1904,-2.189,-2.1901,-2.1902,-2.1916,-2.1884,-2.1929,-2.1931,-2.1933,-2.1967,-2.1973,-2.1977,0,0,0,0,0,-2.1945,-2.1965,-2.1955,-2.1955,-2.195,-2.1954,-2.1953,-2.1937,-2.1922,-2.1931,-2.1921,-2.1904,-2.1914,-2.1902,-2.1903,-2.1918,-2.1928,-2.193,-2.1933,-2.1965,-2.1972,-2.1977,0,0,0,0,0,0,-2.1981,-2.1963,-2.1951,-2.1968,-2.1963,-2.1948,-2.1959,-2.1944,-2.1943,-2.194,-2.192,-2.1917,-2.1931,-2.1925,-2.1912,-2.1939,-2.1918,-2.1921,-2.1943,-2.1949,-2.1953,-2.1955,-2.1884,0,0,0,0,0,-2.1991,-2.1995,-2.1979,-2.1995,-2.1993,-2.1977,-2.1978,-2.1965,-2.1959,-2.1957,-2.1947,-2.1942,-2.1944,-2.1946,-2.1947,-2.1966,-2.1963,-2.1976,-2.1981,-2.1985,-2.1988,-2.1998,-2.2003,-2.1942,-2.1942,-2.1942,0,0,-2.2011,-2.2002,-2.2006,-2.2002,-2.1997,-2.2002,-2.1975,-2.1982,-2.1985,-2.1958,-2.1968,-2.1961,-2.1953,-2.1969,-2.1975,-2.1964,-2.2004,-2.1988,-2.1992,-2.1992,-2.2001,-2.2007,-2.2012,-2.1944,-2.1943,-2.1943,0,0,-2.2051,-2.2044,-2.2057,-2.2052,-2.2044,-2.2032,-2.2035,-2.2023,-2.2017,-2.2026,-2.2006,-2.201,-2.2013,-2.2009,-2.2007,-2.2044,-2.2029,-2.2045,-2.2071,-2.2081,-2.2086,-2.209,-2.2103,-2.2108,-2.2048,-2.2048,-2.2048,0,-2.2078,-2.2085,-2.2065,-2.2073,-2.2072,-2.2047,-2.2059,-2.2055,-2.2048,-2.2048,-2.2036,-2.2039,-2.2033,-2.2047,-2.2055,-2.2055,-2.2058,-2.2047,-2.2086,-2.209,-2.2094,-2.2107,-2.2112,-2.205,-2.205,-2.2049,-2.2049,0,-2.2118,-2.2123,-2.2134,-2.2127,-2.2127,-2.2137,-2.2119,-2.2122,-2.2109,-2.2099,-2.2108,-2.2099,-2.2098,-2.21,-2.2088,-2.2112,-2.2105,-2.209,-2.2069,-2.2102,-2.2114,-2.2118,-2.2053,-2.2052,-2.2052,-2.2051,0,0,-2.2182,-2.2163,-2.2168,-2.2164,-2.2152,-2.2156,-2.2165,-2.2163,-2.2165,-2.216,-2.2167,-2.2171,-2.2156,-2.2154,-2.2141,-2.2149,-2.2179,-2.2133,-2.2132,-2.2142,-2.2206,-2.2218,-2.2224,-2.2169,-2.2169,-2.217,-2.2206,0,-2.2219,-2.2233,-2.2216,-2.2234,-2.2238,-2.2213,-2.2221,-2.2215,-2.2205,-2.2207,-2.2196,-2.2199,-2.2179,-2.2178,-2.2185,-2.2174,-2.2192,-2.2171,-2.2175,-2.2176,-2.2179,-2.223,-2.2243,-2.2278,-2.2211,-2.2212,-2.2212,0,-2.2266,-2.2263,-2.2281,-2.2268,-2.2269,-2.2276,-2.2273,-2.2275,-2.2267,-2.226,-2.2257,-2.2241,-2.2248,-2.2227,-2.2237,-2.2223,-2.2223,-2.2218,-2.2219,-2.222,-2.2197,-2.2232,-2.2288,-2.2294,-2.2219,-2.2218,-2.2218,0,-2.2311,-2.2312,-2.2323,-2.232,-2.2305,-2.2311,-2.2305,-2.2295,-2.2295,-2.2292,-2.2292,-2.229,-2.2289,-2.2287,-2.2271,-2.2257,-2.2283,-2.226,-2.2277,-2.2278,-2.2285,-2.2285,-2.2342,-2.2284,-2.2284,-2.2284,-2.2283,0,-2.2356,-2.2368,-2.2343,-2.235,-2.2362,-2.2342,-2.2355,-2.2346,-2.2338,-2.2343,-2.2321,-2.2326,-2.2304,-2.2306,-2.2293,-2.2303,-2.2303,-2.2297,-2.2294,-2.23,-2.2301,-2.23,-2.2298,-2.2285,-2.2285,-2.2284,-2.2284,0,-2.2409,-2.2393,-2.2403,-2.2387,-2.2384,-2.2394,-2.238,-2.2386,-2.2374,-2.238,-2.238,-2.2362,-2.2364,-2.2347,-2.2345,-2.2337,-2.2353,-2.2345,-2.2356,-2.2354,-2.2372,-2.2371,-2.2432,-2.2439,-2.2376,-2.2376,-2.2377,0,-2.244,-2.2448,-2.2433,-2.2435,-2.2429,-2.2432,-2.2431,-2.2411,-2.2411,-2.2402,-2.2409,-2.2409,-2.2407,-2.2411,-2.2398,-2.2396,-2.2389,-2.241,-2.2388,-2.2394,-2.239,-2.239,-2.239,-2.2415,-2.2416,-2.2417,-2.2417,0,-2.2495,-2.2486,-2.2486,-2.2483,-2.2483,-2.2479,-2.2475,-2.2477,-2.2455,-2.2456,-2.2457,-2.2456,-2.2454,-2.2454,-2.245,-2.2443,-2.2427,-2.2424,-2.2428,-2.2434,-2.244,-2.2438,-2.2369,-2.2423,-2.2422,-2.2422,-2.2422,-2.2421,-2.2538,-2.2545,-2.2535,-2.2535,-2.2529,-2.2525,-2.2529,-2.2518,-2.2518,-2.2515,-2.2503,-2.2506,-2.2497,-2.249,-2.2485,-2.2487,-2.2476,-2.2482,-2.2483,-2.2485,-2.2489,-2.2439,-2.2486,-2.2486,-2.2485,-2.2485,-2.2485,0,-2.2593,-2.2585,-2.2585,-2.2579,-2.2579,-2.2563,-2.2556,-2.2558,-2.2561,-2.2554,-2.2553,-2.2554,-2.2553,-2.254,-2.2538,-2.2542,-2.2534,-2.2542,-2.2542,-2.2541,-2.2498,-2.2495,-2.2548,-2.2548,-2.2548,-2.2548,-2.2548,-2.2548,-2.2621,-2.2632,-2.2621,-2.2628,-2.262,-2.2623,-2.262,-2.2616,-2.2611,-2.2613,-2.2612,-2.2603,-2.2593,-2.259,-2.2589,-2.2585,-2.2585,-2.2596,-2.2589,-2.255,-2.2544,-2.2538,-2.2535,-2.2596,-2.2596,-2.2632,-2.2632,-2.2632]}]]